Content
SEND FEEDBACK

Daily
Averages
Monthly
Summary
Iran

BOJNURD, IRAN


Home > Middle East > Iran
Elevation: 3694 feet     Latitude: 37 28N     Longitude: 057 20E

WEATHER
 
SELECT A DAY
Number of Records: 34,151;   Date Range: 5/9/03 - 9/30/14
 
SHARE

PRINT THIS DATA

[ ← Previous Day ]
WEATHER ALMANAC - JUNE 17, 2014
[ Next Day → ]
[ °C ]   °F
Weather ElementAverageHighLow
Temperature75.9 °F88 °F (4:30 pm)62 °F (4:30 am)
Dewpoint38.2 °F45 °F (7:30 am)30 °F (4:30 pm)
Humidity25.1 %45 % (5:30 am)6 % (4:30 pm)
Barometer30.00 in30.09 in (7:30 am)29.81 in (4:30 pm)
Wind Speed3.6 mph16.1 mph (1:30 am)
Weather ElementAverage
Visibility6 mi
Wind DirectionENE (61.4 °)

Weather ElementTotal
Precipitation---
Cooling Degree Days10 (Base 65)
Growing Degree Days25 (Base 50)
Averaged from 33 records on June 17, 2014
WEATHER CONDITIONS BREAKOUT
WIND DIRECTION BREAKOUT
WEATHER BY HOUR - JUNE 17, 2014
[ °C ]   °F
Local TimeTemperatureDewpointHumidityBarometerVisibilityWind DirectionWind SpeedGust SpeedPrecipitationEventsConditions
1:30 AM68.0 °F38.0 °F22 %29.83 in6.0 miWest (270°)15.7 mph
1:30 AM68.0 °F37.4 °F33 %30.04 inWest (270°)16.1 mphClear
2:30 AM64.4 °F39.2 °F40 %30.04 inENE (70°)6.9 mphClear
3:30 AM62.6 °F39.2 °F42 %30.04 inCalmClear
4:30 AM62.0 °F37.0 °F28 %29.86 in6.0 miCalm
4:30 AM62.6 °F37.4 °F39 %30.06 inCalmClear
5:30 AM64.4 °F42.8 °F45 %30.06 inCalmClear
6:30 AM64.4 °F42.8 °F45 %30.06 inCalmClear
7:30 AM69.8 °F44.6 °F40 %30.09 inNE (40°)6.9 mphClear
7:30 AM69.0 °F45.0 °F30 %29.88 in6.0 miNE (40°)6.7 mph
8:30 AM73.4 °F42.8 °F33 %30.09 inSSE (150°)4.6 mphClear
9:30 AM75.2 °F42.8 °F31 %30.09 inCalmClear
10:30 AM79.0 °F42.0 °F17 %29.89 in6.0 miCalm
10:30 AM78.8 °F42.8 °F28 %30.09 inCalmClear
11:00 AM80.6 °F42.8 °F26 %30.09 inCalmClear
11:30 AM80.6 °F39.2 °F23 %30.09 inWSW (240°)4.6 mphClear
12:00 PM80.6 °F39.2 °F23 %30.09 inCalmClear
12:30 PM82.4 °F33.8 °F17 %30.09 inSSE (150°)4.6 mphClear
1:30 PM85.0 °F36.0 °F10 %29.85 in6.0 miCalm
1:30 PM84.2 °F35.6 °F18 %30.04 inCalmClear
2:30 PM86.0 °F37.4 °F18 %30.04 inCalmClear
3:30 PM87.8 °F37.4 °F17 %30.01 inCalmClear
4:30 PM88.0 °F30.0 °F6 %29.81 in6.0 miSE (130°)4.5 mph
4:30 PM87.8 °F30.2 °F13 %30.01 inSE (130°)4.6 mphClear
5:30 PM86.0 °F30.2 °F13 %30.01 inSE (130°)4.6 mphClear
6:30 PM82.4 °F35.6 °F19 %30.01 inNNE (30°)6.9 mphClear
7:30 PM79.0 °F39.0 °F14 %29.82 in6.0 miNE (40°)11.2 mph
7:30 PM78.8 °F39.2 °F24 %30.01 inNE (40°)11.5 mphClear
8:30 PM78.8 °F37.4 °F23 %30.01 inNE (50°)9.2 mphClear
9:30 PM78.8 °F37.4 °F23 %30.04 inCalmClear
10:30 PM73.0 °F36.0 °F16 %29.84 in6.0 miCalm
10:30 PM73.4 °F35.6 °F25 %30.04 inCalmClear
11:30 PM69.8 °F35.6 °F28 %30.04 inCalmClear
Hourly data recorded from 40723, located miles away from Bojnurd, Iran







STORIES FROM OUR PARTNERS